Weather reports worldwide

Advertisment
Threave, United Kingdom (99090): temperature & dewpoint: 15.01.2017 02:00:00 - 21.01.2017 02:00:00 (GMT)Threave, United Kingdom (99090): temperature -20cm & temperature -100cm: 15.01.2017 02:00:00 - 21.01.2017 02:00:00 (GMT)Threave, United Kingdom (99090): precipitation: 15.01.2017 02:00:00 - 21.01.2017 02:00:00 (GMT)
Date & Time tt [°C] td [°C] tt -20cm [°C] tt -100cm [°C] rr [mm]
21.01.2017 02:00:00 - - - - -
21.01.2017 01:00:00 -1,7 -1,7 - - 0,0
21.01.2017 00:00:00 -1,2 -1,2 - - 0,0
20.01.2017 23:00:00 -1,1 -1,1 - - 0,0
20.01.2017 22:00:00 -1,0 -1,1 - - 0,0
20.01.2017 21:00:00 0,5 0,4 - - 0,0
20.01.2017 20:00:00 0,4 0,0 - - 0,0
20.01.2017 19:00:00 1,9 1,7 - - 0,0
20.01.2017 18:00:00 3,0 2,8 - - 0,0
20.01.2017 17:00:00 3,3 2,5 - - 0,0
20.01.2017 16:00:00 5,2 4,2 - - 0,0
20.01.2017 15:00:00 5,3 4,3 - - 0,0
20.01.2017 14:00:00 5,5 4,4 - - 0,0
20.01.2017 13:00:00 5,4 4,6 - - 0,0
20.01.2017 12:00:00 5,3 4,8 - - 0,2
20.01.2017 11:00:00 5,3 4,8 - - 0,0
20.01.2017 10:00:00 5,1 4,9 - - 0,0
20.01.2017 09:00:00 4,9 4,7 6,4 7,0 0,0
20.01.2017 08:00:00 4,9 4,6 - - 0,0
20.01.2017 07:00:00 4,8 4,5 - - 0,0
20.01.2017 06:00:00 4,8 4,4 - - 0,0
20.01.2017 05:00:00 4,9 4,5 - - 0,0
20.01.2017 04:00:00 4,9 4,3 - - 0,0
20.01.2017 03:00:00 5,0 4,2 - - 0,0
20.01.2017 02:00:00 5,0 4,1 - - 0,0
20.01.2017 01:00:00 5,1 4,1 - - 0,0
20.01.2017 00:00:00 5,3 4,2 - - 0,0
19.01.2017 23:00:00 5,4 4,2 - - 0,0
19.01.2017 22:00:00 5,6 4,4 - - 0,0
19.01.2017 21:00:00 5,7 4,5 - - 0,0
19.01.2017 20:00:00 5,9 4,5 - - 0,0
19.01.2017 19:00:00 6,0 4,6 - - 0,0
19.01.2017 18:00:00 6,1 4,7 - - 0,0
19.01.2017 17:00:00 6,2 4,7 - - 0,0
19.01.2017 16:00:00 6,5 4,6 - - 0,0
19.01.2017 15:00:00 6,6 4,7 - - 0,0
19.01.2017 14:00:00 6,7 5,0 - - 0,0
19.01.2017 13:00:00 7,1 4,9 - - 0,0
19.01.2017 12:00:00 7,2 4,5 - - 0,0
19.01.2017 11:00:00 7,3 4,7 - - 0,0
19.01.2017 10:00:00 7,3 4,5 - - 0,0
19.01.2017 09:00:00 6,8 4,7 6,4 6,9 0,0
19.01.2017 08:00:00 6,7 5,0 - - 0,0
19.01.2017 07:00:00 6,7 5,0 - - 0,0
19.01.2017 06:00:00 6,5 5,0 - - 0,0
19.01.2017 05:00:00 6,5 5,1 - - 0,0
19.01.2017 04:00:00 6,5 5,2 - - 0,0
19.01.2017 03:00:00 6,7 5,1 - - 0,0
19.01.2017 02:00:00 6,4 5,2 - - 0,0
19.01.2017 01:00:00 6,6 5,0 - - 0,0
19.01.2017 00:00:00 6,7 5,0 - - 0,0
18.01.2017 23:00:00 6,9 4,8 - - 0,0
18.01.2017 22:00:00 6,7 4,8 - - 0,0
18.01.2017 21:00:00 6,9 4,8 - - 0,0
18.01.2017 20:00:00 6,8 5,0 - - 0,0
18.01.2017 19:00:00 6,8 4,9 - - 0,0
18.01.2017 18:00:00 7,0 4,8 - - 0,0
18.01.2017 17:00:00 7,5 4,7 - - 0,0
18.01.2017 16:00:00 7,8 4,7 - - 0,0
18.01.2017 15:00:00 8,1 5,8 - - 0,0
18.01.2017 14:00:00 8,2 5,9 - - 0,0
18.01.2017 13:00:00 8,2 5,7 - - 0,0
18.01.2017 12:00:00 8,2 5,2 - - 0,0
18.01.2017 11:00:00 7,8 6,2 - - 0,0
18.01.2017 10:00:00 7,4 6,2 - - 0,0
18.01.2017 09:00:00 7,3 6,3 6,2 6,7 0,0
18.01.2017 08:00:00 7,6 6,4 - - 0,0
18.01.2017 07:00:00 7,6 6,1 - - 0,0
18.01.2017 06:00:00 7,6 6,6 - - 0,0
18.01.2017 05:00:00 7,6 7,2 - - 0,0
18.01.2017 04:00:00 7,9 7,9 - - 0,0
18.01.2017 03:00:00 8,2 8,2 - - 0,0
18.01.2017 02:00:00 8,2 8,2 - - 0,0
18.01.2017 01:00:00 8,2 8,2 - - 0,0
18.01.2017 00:00:00 7,9 7,9 - - 0,0
17.01.2017 23:00:00 7,9 7,9 - - 0,0
17.01.2017 22:00:00 7,8 7,8 - - 0,0
17.01.2017 21:00:00 7,7 7,7 - - 0,0
17.01.2017 20:00:00 7,7 7,7 - - 0,2
17.01.2017 19:00:00 8,0 8,0 - - 0,0
17.01.2017 18:00:00 8,1 8,1 - - 0,0
17.01.2017 17:00:00 8,2 8,2 - - 0,0
17.01.2017 16:00:00 8,1 8,1 - - 0,0
17.01.2017 15:00:00 8,4 8,4 - - 0,0
17.01.2017 14:00:00 8,8 8,8 - - 0,0
17.01.2017 13:00:00 8,9 8,9 - - 0,0
17.01.2017 12:00:00 8,8 8,8 - - 0,0
17.01.2017 11:00:00 8,8 8,8 - - 0,0
17.01.2017 10:00:00 8,6 8,6 - - 0,0
17.01.2017 09:00:00 8,6 8,6 5,7 6,7 0,0
17.01.2017 08:00:00 8,5 8,5 - - 0,0
17.01.2017 07:00:00 8,3 8,3 - - 0,0
17.01.2017 06:00:00 8,2 8,2 - - 0,2
17.01.2017 05:00:00 7,7 7,7 - - 0,2
17.01.2017 04:00:00 6,7 6,7 - - 0,4
17.01.2017 03:00:00 6,4 6,4 - - 0,0
17.01.2017 02:00:00 6,1 6,1 - - 0,0
17.01.2017 01:00:00 6,1 6,1 - - 0,2
17.01.2017 00:00:00 6,0 6,0 - - 0,0
16.01.2017 23:00:00 5,4 5,4 - - 0,0
16.01.2017 22:00:00 5,0 5,0 - - 0,0
16.01.2017 21:00:00 4,8 4,8 - - 0,0
16.01.2017 20:00:00 4,0 3,8 - - 0,0
16.01.2017 19:00:00 5,0 4,8 - - 0,0
16.01.2017 18:00:00 5,7 5,5 - - 0,0
16.01.2017 17:00:00 7,0 6,4 - - 0,0
16.01.2017 16:00:00 9,0 6,7 - - 0,0
16.01.2017 15:00:00 10,4 8,1 - - 0,0
16.01.2017 14:00:00 11,1 8,6 - - 0,0
16.01.2017 13:00:00 9,7 8,4 - - 0,0
16.01.2017 12:00:00 9,5 8,2 - - 0,0
16.01.2017 11:00:00 8,6 7,8 - - 0,0
16.01.2017 10:00:00 7,7 7,2 - - 0,0
16.01.2017 09:00:00 6,9 6,3 5,2 6,7 0,0
16.01.2017 08:00:00 7,6 7,1 - - 0,0
16.01.2017 07:00:00 8,1 7,4 - - 0,0
16.01.2017 06:00:00 8,1 7,7 - - 0,0
16.01.2017 05:00:00 8,4 8,1 - - 0,0
16.01.2017 04:00:00 8,4 8,4 - - 0,0
16.01.2017 03:00:00 7,9 7,8 - - 0,2
16.01.2017 02:00:00 7,8 7,8 - - 0,0
16.01.2017 01:00:00 7,6 7,6 - - 0,0
16.01.2017 00:00:00 7,0 7,0 - - 0,0
15.01.2017 23:00:00 7,1 7,0 - - 0,0
15.01.2017 22:00:00 7,2 7,0 - - 0,0
15.01.2017 21:00:00 7,3 7,0 - - 0,0
15.01.2017 20:00:00 7,5 7,1 - - 0,0
15.01.2017 19:00:00 8,0 7,1 - - 0,0
15.01.2017 18:00:00 8,1 7,6 - - 0,0
15.01.2017 17:00:00 8,1 6,9 - - 0,0
15.01.2017 16:00:00 9,8 8,2 - - 0,0
15.01.2017 15:00:00 10,1 8,4 - - 0,0
15.01.2017 14:00:00 10,3 8,5 - - 0,2
15.01.2017 13:00:00 10,2 8,7 - - 0,0
15.01.2017 12:00:00 10,3 8,6 - - 0,0
15.01.2017 11:00:00 9,9 8,4 - - 0,0
15.01.2017 10:00:00 9,6 8,3 - - 0,0
15.01.2017 09:00:00 9,1 7,9 4,4 7,0 0,0
15.01.2017 08:00:00 8,7 7,7 - - 0,0
15.01.2017 07:00:00 8,6 7,8 - - 0,0
15.01.2017 06:00:00 8,3 7,7 - - 0,0
15.01.2017 05:00:00 6,9 6,9 - - 0,2
15.01.2017 04:00:00 6,1 6,1 - - 0,8
15.01.2017 03:00:00 5,8 5,8 - - 0,2
15.01.2017 02:00:00 5,4 5,4 - - 0,2

tt = temperature
td = dewpoint
tt -20cm = temperature -20cm
tt -100cm = temperature -100cm
rr = precipitation

Next stations